Location: Dal�� Lhota
(48.7500°N, 14.0167°E)
Time: 19:48:27
(UTC+00:00)

Transit 2A - Pass Details

Date: 05 August 2021
Orbit: 594 x 964 km, 66.7° (Epoch: 27 September)

Event Time Altitude Azimuth Distance (km) Brightness Sun altitude
Rises 13:21:13 0° 320° (NW) 3,253 9.3 48.4°
Reaches altitude 10° 13:23:35 10° 315° (NW) 2,379 8.7 48.1°
Maximum altitude 13:28:52 49° 242° (WSW) 1,095 9.8 47.4°
Drops below altitude 10° 13:34:39 10° 170° (S) 2,589 9.1 46.6°
Sets 13:37:19 0° 165° (SSE) 3,567 9.6 46.3°
